| time (UTC) | temp F | wind direction | speed knots | gust knots | rain 1hr in | rain 24hr in | rain mn in | humidity % | barometer mb |
| 20260507011553 | 78 | 98 | 3.5 | 6.1 | 0.00 | 0.00 | 0.00 | 90 | 1009.9 |
| 20260507010046 | 78 | 109 | 3.5 | 7.8 | 0.00 | 0.00 | 0.00 | 90 | 1009.5 |
| 20260507004542 | 78 | 86 | 4.3 | 7.8 | 0.00 | 0.00 | 0.00 | 89 | 1009.2 |
| 20260507003042 | 78 | 90 | 6.1 | 9.6 | 0.00 | 0.00 | 0.00 | 89 | 1009.1 |
| 20260507001556 | 78 | 120 | 5.2 | 7.8 | 0.00 | 0.00 | 0.00 | 88 | 1009.1 |
| 20260507000053 | 79 | 100 | 4.3 | 8.7 | 0.00 | 0.00 | 0.00 | 88 | 1009.0 |
| 20260506234558 | 79 | 119 | 3.5 | 8.7 | 0.00 | 0.00 | 0.00 | 88 | 1009.0 |
| 20260506233046 | 79 | 132 | 4.3 | 7.0 | 0.00 | 0.00 | 0.00 | 88 | 1008.9 |
| 20260506231539 | 79 | 128 | 3.5 | 7.0 | 0.00 | 0.00 | 0.00 | 89 | 1009.0 |
| 20260506230038 | 79 | 116 | 2.6 | 5.2 | 0.00 | 0.00 | 0.00 | 89 | 1008.8 |
| 20260506224538 | 79 | 117 | 2.6 | 6.1 | 0.00 | 0.00 | 0.00 | 89 | 1008.6 |
| 20260506223038 | 79 | 109 | 1.7 | 5.2 | 0.00 | 0.00 | 0.00 | 88 | 1008.6 |
| 20260506221550 | 79 | 123 | 0.9 | 7.0 | 0.00 | 0.00 | 0.00 | 88 | 1008.5 |
| 20260506220043 | 79 | 153 | 5.2 | 7.8 | 0.00 | 0.00 | 0.00 | 88 | 1008.5 |
| 20260506214536 | 79 | 108 | 4.3 | 8.7 | 0.00 | 0.00 | 0.00 | 88 | 1008.4 |
| 20260506213043 | 79 | 127 | 7.0 | 12.2 | 0.00 | 0.00 | 0.00 | 87 | 1008.5 |
| 20260506211543 | 79 | 137 | 6.1 | 11.3 | 0.00 | 0.00 | 0.00 | 87 | 1008.6 |
| 20260506210043 | 79 | 132 | 8.7 | 12.2 | 0.00 | 0.00 | 0.00 | 88 | 1008.8 |
| 20260506204535 | 79 | 137 | 6.1 | 10.4 | 0.00 | 0.00 | 0.00 | 88 | 1009.1 |
| 20260506203034 | 79 | 95 | 7.0 | 10.4 | 0.00 | 0.00 | 0.00 | 88 | 1009.3 |
| 20260506201537 | 79 | 127 | 4.3 | 11.3 | 0.00 | 0.00 | 0.00 | 88 | 1009.4 |
| 20260506200033 | 79 | 132 | 5.2 | 11.3 | 0.00 | 0.00 | 0.00 | 87 | 1009.5 |
| 20260506194532 | 79 | 82 | 5.2 | 8.7 | 0.00 | 0.00 | 0.00 | 87 | 1009.7 |
| 20260506193044 | 79 | 132 | 3.5 | 8.7 | 0.00 | 0.00 | 0.00 | 88 | 1009.8 |
| 20260506191531 | 79 | 104 | 6.1 | 8.7 | 0.00 | 0.00 | 0.00 | 88 | 1009.9 |
| 20260506190030 | 80 | 130 | 6.1 | 9.6 | 0.00 | 0.00 | 0.00 | 87 | 1010.0 |
| 20260506184530 | 79 | 132 | 6.1 | 8.7 | 0.00 | 0.00 | 0.00 | 89 | 1010.1 |
| 20260506183025 | 78 | 144 | 5.2 | 10.4 | 0.00 | 0.00 | 0.00 | 90 | 1009.9 |
| 20260506181536 | 78 | 121 | 5.2 | 10.4 | 0.00 | 0.00 | 0.00 | 90 | 1010.3 |
| 20260506180025 | 78 | 152 | 7.0 | 10.4 | 0.00 | 0.00 | 0.00 | 90 | 1010.6 |
| 20260506174523 | 78 | 149 | 7.8 | 13.0 | 0.00 | 0.00 | 0.00 | 89 | 1010.9 |
| 20260506173040 | 78 | 154 | 8.7 | 13.0 | 0.00 | 0.00 | 0.00 | 89 | 1010.8 |
| 20260506171521 | 78 | 139 | 5.2 | 9.6 | 0.00 | 0.00 | 0.00 | 90 | 1010.7 |
| 20260506170021 | 78 | 117 | 5.2 | 9.6 | 0.00 | 0.00 | 0.00 | 90 | 1010.7 |
| 20260506164519 | 78 | 148 | 7.0 | 12.2 | 0.00 | 0.00 | 0.00 | 89 | 1010.6 |
| 20260506163024 | 78 | 150 | 7.0 | 12.2 | 0.00 | 0.00 | 0.00 | 89 | 1010.5 |
| 20260506161517 | 78 | 146 | 5.2 | 9.6 | 0.00 | 0.00 | 0.00 | 89 | 1010.4 |
| 20260506160016 | 78 | 171 | 6.1 | 11.3 | 0.00 | 0.00 | 0.00 | 90 | 1010.0 |
| 20260506154513 | 78 | 128 | 7.8 | 13.9 | 0.00 | 0.00 | 0.00 | 90 | 1009.9 |
| 20260506153017 | 77 | 165 | 7.8 | 14.8 | 0.00 | 0.00 | 0.00 | 90 | 1009.8 |
| 20260506151511 | 77 | 150 | 7.8 | 11.3 | 0.00 | 0.00 | 0.00 | 90 | 1009.7 |
| 20260506150015 | 77 | 157 | 7.8 | 12.2 | 0.00 | 0.00 | 0.00 | 90 | 1009.5 |
| 20260506144509 | 77 | 148 | 9.6 | 13.0 | 0.00 | 0.00 | 0.00 | 90 | 1009.3 |
| 20260506143014 | 77 | 146 | 7.8 | 13.9 | 0.00 | 0.00 | 0.00 | 90 | 1009.5 |
| 20260506141508 | 77 | 143 | 7.0 | 13.9 | 0.00 | 0.00 | 0.00 | 90 | 1009.6 |
| 20260506140013 | 77 | 132 | 7.0 | 12.2 | 0.00 | 0.00 | 0.00 | 90 | 1009.4 |
| 20260506134505 | 77 | 158 | 7.0 | 12.2 | 0.00 | 0.00 | 0.00 | 90 | 1009.3 |
| 20260506133005 | 77 | 140 | 7.8 | 13.0 | 0.00 | 0.00 | 0.00 | 90 | 1009.3 |
| 20260506131508 | 77 | 134 | 6.1 | 10.4 | 0.00 | 0.00 | 0.00 | 90 | 1009.3 |
| 20260506130005 | 77 | 140 | 5.2 | 9.6 | 0.00 | 0.00 | 0.00 | 90 | 1009.2 |
| 20260506124504 | 77 | 138 | 2.6 | 7.8 | 0.00 | 0.00 | 0.00 | 90 | 1009.3 |
| 20260506123003 | 77 | 144 | 3.5 | 7.8 | 0.00 | 0.00 | 0.00 | 90 | 1009.1 |
| 20260506121502 | 77 | 144 | 3.5 | 8.7 | 0.00 | 0.00 | 0.00 | 90 | 1009.1 |
| 20260506120002 | 77 | 137 | 4.3 | 7.8 | 0.00 | 0.00 | 0.00 | 90 | 1009.0 |
| 20260506114502 | 77 | 144 | 4.3 | 7.8 | 0.00 | 0.00 | 0.00 | 90 | 1008.9 |
| 20260506113001 | 77 | 133 | 4.3 | 8.7 | 0.00 | 0.00 | 0.00 | 90 | 1008.8 |
| 20260506111501 | 77 | 129 | 3.5 | 8.7 | 0.00 | 0.00 | 0.00 | 90 | 1008.8 |
| 20260506110001 | 77 | 142 | 5.2 | 10.4 | 0.00 | 0.00 | 0.00 | 90 | 1008.8 |
| 20260506104636 | 77 | 166 | 5.2 | 8.7 | 0.00 | 0.00 | 0.00 | 90 | 1008.8 |
| 20260506103108 | 77 | 157 | 6.1 | 9.6 | 0.00 | 0.00 | 0.00 | 90 | 1008.8 |
| 20260506101559 | 77 | 159 | 6.1 | 9.6 | 0.00 | 0.00 | 0.00 | 90 | 1008.8 |
| 20260506100058 | 77 | 171 | 7.0 | 11.3 | 0.00 | 0.00 | 0.00 | 91 | 1008.7 |
| 20260506094558 | 76 | 139 | 7.0 | 13.0 | 0.00 | 0.00 | 0.00 | 91 | 1008.5 |
| 20260506093057 | 77 | 133 | 6.1 | 12.2 | 0.00 | 0.00 | 0.00 | 91 | 1008.2 |
| 20260506091559 | 77 | 168 | 7.8 | 10.4 | 0.00 | 0.00 | 0.00 | 90 | 1008.2 |
| 20260506090057 | 77 | 132 | 7.0 | 12.2 | 0.00 | 0.00 | 0.00 | 90 | 1008.1 |
| 20260506084555 | 76 | 144 | 7.0 | 13.0 | 0.00 | 0.00 | 0.00 | 90 | 1008.0 |
| 20260506083055 | 76 | 161 | 7.8 | 11.3 | 0.00 | 0.00 | 0.00 | 90 | 1008.2 |
| 20260506081559 | 76 | 152 | 6.1 | 10.4 | 0.00 | 0.00 | 0.00 | 90 | 1008.3 |
| 20260506080106 | 76 | 165 | 8.7 | 13.9 | 0.00 | 0.00 | 0.00 | 90 | 1008.3 |
| 20260506073050 | 76 | 156 | 7.8 | 13.0 | 0.00 | 0.00 | 0.00 | 90 | 1009.0 |
| 20260506071547 | 77 | 144 | 7.0 | 12.2 | 0.00 | 0.00 | 0.00 | 90 | 1009.2 |
| 20260506061545 | 77 | 164 | 8.7 | 17.4 | 0.00 | 0.00 | 0.00 | 90 | 1009.3 |
| 20260506044538 | 77 | 159 | 13.0 | 18.2 | 0.00 | 0.00 | 0.00 | 89 | 1009.3 |
| 20260506043047 | 77 | 155 | 11.3 | 16.5 | 0.00 | 0.00 | 0.00 | 89 | 1009.4 |
| 20260506041538 | 77 | 159 | 13.0 | 18.2 | 0.00 | 0.00 | 0.00 | 89 | 1009.4 |
| 20260506040045 | 77 | 169 | 13.0 | 20.0 | 0.00 | 0.00 | 0.00 | 89 | 1009.5 |
| 20260506034537 | 77 | 166 | 12.2 | 17.4 | 0.00 | 0.00 | 0.00 | 89 | 1009.2 |
| 20260506033035 | 77 | 153 | 13.0 | 17.4 | 0.00 | 0.00 | 0.00 | 89 | 1009.2 |
| 20260506031536 | 77 | 162 | 13.0 | 19.1 | 0.00 | 0.00 | 0.00 | 89 | 1009.0 |
| 20260506030034 | 77 | 168 | 13.0 | 16.5 | 0.00 | 0.00 | 0.00 | 89 | 1008.7 |
| 20260506024542 | 77 | 148 | 9.6 | 19.1 | 0.00 | 0.00 | 0.00 | 88 | 1008.5 |
| 20260506023033 | 77 | 168 | 13.0 | 18.2 | 0.00 | 0.00 | 0.00 | 89 | 1008.4 |
| 20260506021549 | 77 | 172 | 13.0 | 19.1 | 0.00 | 0.00 | 0.00 | 89 | 1008.2 |
| 20260506020032 | 77 | 161 | 12.2 | 18.2 | 0.00 | 0.00 | 0.00 | 89 | 1008.1 |
| 20260506014532 | 77 | 164 | 12.2 | 15.6 | 0.00 | 0.00 | 0.00 | 89 | 1007.9 |
| 20260506013031 | 77 | 142 | 12.2 | 19.1 | 0.00 | 0.00 | 0.00 | 88 | 1007.7 |